Regional Weather Roundup
Issued by NWS

Home | Current Version | Previous Version | Graphics & Text | Print | Product List | Glossary On
Versions: 1 2 3 4 5 6 7 8 9 10 11 12 13 14 15 16 17 18 19 20 21 22 23 24 25 26 27 28 29 30 31 32 33 34 35 36 37 38 39 40 41 42 43 44 45 46 47 48 49 50
000
ASUS44 KMEG 300710
RWRTN
TENNESSEE HOURLY STATE WEATHER ROUNDUP
NATIONAL WEATHER SERVICE MEMPHIS TN
200 AM CDT SAT AUG 30 2014

TNZ002-004-019-021-049-052-054-088>092-300800-
WEST TENNESSEE

CITY           SKY/WX    TMP DP  RH WIND       PRES   REMARKS
MEMPHIS INTL   MOCLDY    78  70  76 CALM      29.99F
NWS MEMPHIS      N/A     77 N/A N/A MISG        N/A
JACKSON        MOCLDY    77  63  61 S3        30.00F
DYERSBURG      MOCLDY    73  64  73 CALM      30.00F
UNION CITY     MOCLDY    73  72  94 CALM      29.99F
PARIS          CLEAR     72  64  78 S5        30.02F
HUNTINGDON     MOCLDY    73  65  76 CALM      30.01F
LEXINGTON      PTCLDY    70  66  88 CALM      30.02F
SAVANNAH       CLEAR     72  66  83 VRB3      30.03F
$$

TNZ008-025-027-028-033-062-065-066-300800-
NORTH MIDDLE TENNESSEE

CITY           SKY/WX    TMP DP  RH WIND       PRES   REMARKS
NASHVILLE      PTCLDY    73  64  73 S6        30.05F
DICKSON        CLEAR     75  63  64 S7        30.05F
PORTLAND       CLEAR     70  63  78 S5        30.05F
CLARKSVILLE    CLOUDY    74  65  73 SE6       30.02F
LEBANON        CLEAR     70  64  81 CALM      30.05F
SMYRNA         CLEAR     69  66  90 CALM      30.06F
COOKEVILLE     MOCLDY    66  64  94 CALM      30.10S
LIVINGSTON     MOCLDY    75  57  53 CALM      30.11F
GALLATIN       MOCLDY    71  68  90 CALM      30.07F
CROSSVILLE     MOCLDY    69  61  75 CALM      30.16S
$$

TNZ061-075-076-078-094-096-097-300800-
SOUTH MIDDLE TENNESSEE

CITY           SKY/WX    TMP DP  RH WIND       PRES   REMARKS
LEWISBURG      CLEAR     68  65  90 CALM      30.06F
FAYETTEVILLE   CLEAR     73  61  64 CALM      30.08F
TULLAHOMA      CLEAR     66  63  88 CALM      30.10F
WINCHESTER     PTCLDY    70  64  83 CALM      30.09F
MCMINNVILLE    CLEAR     64  64 100 CALM      30.10F
COLUMBIA         N/A     70  70 100 CALM      30.04F
SHELBYVILLE    PTCLDY    72  66  83 E3        30.08F
$$

TNZ017-018-042-046-047-300800-
NORTHEAST TENNESSEE

CITY           SKY/WX    TMP DP  RH WIND       PRES   REMARKS
TRI CITIES     CLEAR     68  65  90 CALM      30.18S
ELIZABETHTON   SUNNY     66  64  94 CALM      30.19S
$$

TNZ012-013-036-069-073-074-300800-
CENTRAL EAST TENNESSEE

CITY           SKY/WX    TMP DP  RH WIND       PRES   REMARKS
KNOXVILLE      MOCLDY    70  66  87 NE3       30.11R
OAK RIDGE      MOCLDY    71  67  87 CALM      30.14R
GATLINBURG     SUNNY     66  63  88 CALM      30.12S
MORRISTOWN     SUNNY     72  66  83 CALM      30.15S
$$

TNZ083-085-099-300800-
SOUTHEAST TENNESSEE

CITY           SKY/WX    TMP DP  RH WIND       PRES   REMARKS
CHATTANOOGA    PTCLDY    73  64  73 CALM      30.10S
$$

SKY/WX REPORTED AS FAIR MEANS FEW OR NO CLOUDS BELOW
12 THOUSAND FEET.




USA.gov is the U.S. government's official web portal to all federal, state and local government web resources and services.